Location: ?????????
(53.2086°N, 54.0693°E)
Time: 01:41:24
(UTC+00:00)

IRS-1C Rocket - Pass Details

Date: 08 December 2019
Orbit: 800 x 806 km, 99.0° (Epoch: 17 January)

Event Time Altitude Azimuth Distance (km) Brightness Sun altitude
Rises 13:35:29 0° 166° (SSE) 3,310 7.4 -12.3°
Reaches altitude 10° 13:37:48 10° 167° (SSE) 2,383 6.7 -12.6°
Maximum altitude 13:43:05 78° 254° (WSW) 829 4.3 -13.4°
Drops below altitude 10° 13:48:23 10° 342° (NNW) 2,396 6.6 -14.1°
Sets 13:50:44 0° 344° (NNW) 3,330 7.3 -14.5°
